Information on these data can be found in provided Readme document
Contact Info: Zachary Fasnacht (zachary.fasnacht@ssaihq.com); Nickolay Krotkov (nickolay.a.krotkov@nasa.gov); Lok Lamsal (lok.lamsal@nasa.gov)

FillValue: -999.
ScaleFactor: 1e15
Units: molecules/cm^2

Date(yyyy-mm-dd),City,Country,LonCenter,LatCenter,BoundingCoordinates,Median,Q1,Q3,Mean,Baseline_Median,Baseline_Q1,Baseline_Q3,Baseline_Mean,NumGoodSamples,NumTotalSamples
2015-01-01,KualaLumpur,Malaysia,101.7001,3.1333,[101.2001 2.6333 102.2001 3.6333],0.686,0.389,1.986,1.152,1.748,0.838,3.025,2.04,11.0,529.0
2015-01-02,KualaLumpur,Malaysia,101.7001,3.1333,[101.2001 2.6333 102.2001 3.6333],0.686,0.389,1.986,1.152,1.878,0.874,2.928,2.066,11.0,528.0
2015-01-03,KualaLumpur,Malaysia,101.7001,3.1333,[101.2001 2.6333 102.2001 3.6333],0.686,0.389,1.986,1.152,1.904,0.888,3.089,2.17,11.0,541.0
2015-01-04,KualaLumpur,Malaysia,101.7001,3.1333,[101.2001 2.6333 102.2001 3.6333],0.412,-1.06,1.85,0.758,1.862,0.87,3.071,2.173,12.0,514.0
2015-01-05,KualaLumpur,Malaysia,101.7001,3.1333,[101.2001 2.6333 102.2001 3.6333],0.412,-1.06,1.85,0.758,2.001,0.929,3.131,2.339,12.0,537.0
2015-01-06,KualaLumpur,Malaysia,101.7001,3.1333,[101.2001 2.6333 102.2001 3.6333],1.614,0.697,1.909,1.288,2.071,0.991,3.204,2.348,31.0,511.0
2015-01-07,KualaLumpur,Malaysia,101.7001,3.1333,[101.2001 2.6333 102.2001 3.6333],1.614,0.697,1.909,1.288,2.084,0.984,3.256,2.435,31.0,544.0
2015-01-08,KualaLumpur,Malaysia,101.7001,3.1333,[101.2001 2.6333 102.2001 3.6333],1.731,0.828,2.705,2.072,2.169,1.036,3.471,2.508,41.0,523.0
2015-01-09,KualaLumpur,Malaysia,101.7001,3.1333,[101.2001 2.6333 102.2001 3.6333],1.732,0.828,2.963,2.112,2.23,1.131,3.237,2.521,74.0,535.0
2015-01-10,KualaLumpur,Malaysia,101.7001,3.1333,[101.2001 2.6333 102.2001 3.6333],1.732,0.828,2.963,2.112,2.242,1.171,3.275,2.545,74.0,504.0
2015-01-11,KualaLumpur,Malaysia,101.7001,3.1333,[101.2001 2.6333 102.2001 3.6333],1.846,0.828,2.973,2.13,2.093,1.15,3.272,2.474,99.0,493.0
2015-01-12,KualaLumpur,Malaysia,101.7001,3.1333,[101.2001 2.6333 102.2001 3.6333],1.846,0.828,3.054,2.335,2.104,1.133,3.293,2.504,106.0,515.0
2015-01-13,KualaLumpur,Malaysia,101.7001,3.1333,[101.2001 2.6333 102.2001 3.6333],1.846,0.828,3.054,2.335,2.034,1.143,3.234,2.465,106.0,484.0
2015-01-14,KualaLumpur,Malaysia,101.7001,3.1333,[101.2001 2.6333 102.2001 3.6333],1.846,0.828,3.054,2.34,2.048,1.133,3.223,2.511,105.0,505.0
2015-01-15,KualaLumpur,Malaysia,101.7001,3.1333,[101.2001 2.6333 102.2001 3.6333],1.846,0.828,3.054,2.334,2.049,1.103,3.315,2.53,107.0,488.0
2015-01-16,KualaLumpur,Malaysia,101.7001,3.1333,[101.2001 2.6333 102.2001 3.6333],1.909,0.836,3.118,2.422,2.113,1.115,3.33,2.535,124.0,517.0
2015-01-17,KualaLumpur,Malaysia,101.7001,3.1333,[101.2001 2.6333 102.2001 3.6333],1.909,0.836,3.118,2.424,2.127,1.126,3.337,2.545,125.0,501.0
2015-01-18,KualaLumpur,Malaysia,101.7001,3.1333,[101.2001 2.6333 102.2001 3.6333],1.909,0.926,3.054,2.409,2.051,1.138,3.21,2.482,134.0,500.0
2015-01-19,KualaLumpur,Malaysia,101.7001,3.1333,[101.2001 2.6333 102.2001 3.6333],1.909,0.926,3.118,2.436,2.112,1.164,3.268,2.525,142.0,517.0
2015-01-20,KualaLumpur,Malaysia,101.7001,3.1333,[101.2001 2.6333 102.2001 3.6333],1.955,1.144,3.478,2.499,2.13,1.226,3.299,2.468,156.0,491.0
2015-01-21,KualaLumpur,Malaysia,101.7001,3.1333,[101.2001 2.6333 102.2001 3.6333],2.395,1.207,3.753,2.784,2.182,1.213,3.304,2.492,137.0,513.0
2015-01-22,KualaLumpur,Malaysia,101.7001,3.1333,[101.2001 2.6333 102.2001 3.6333],2.395,1.207,3.753,2.784,2.204,1.218,3.339,2.477,137.0,488.0
2015-01-23,KualaLumpur,Malaysia,101.7001,3.1333,[101.2001 2.6333 102.2001 3.6333],2.346,1.316,3.844,2.761,2.166,1.23,3.296,2.438,119.0,521.0
2015-01-24,KualaLumpur,Malaysia,101.7001,3.1333,[101.2001 2.6333 102.2001 3.6333],2.201,1.33,3.657,2.637,2.134,1.195,3.283,2.45,104.0,501.0
2015-01-25,KualaLumpur,Malaysia,101.7001,3.1333,[101.2001 2.6333 102.2001 3.6333],2.092,1.144,3.505,2.385,2.0,1.061,3.139,2.259,137.0,543.0
2015-01-26,KualaLumpur,Malaysia,101.7001,3.1333,[101.2001 2.6333 102.2001 3.6333],2.222,1.316,3.69,2.575,2.043,1.093,3.227,2.325,121.0,541.0
2015-01-27,KualaLumpur,Malaysia,101.7001,3.1333,[101.2001 2.6333 102.2001 3.6333],2.148,1.245,3.505,2.349,2.0,1.102,3.102,2.216,120.0,529.0
2015-01-28,KualaLumpur,Malaysia,101.7001,3.1333,[101.2001 2.6333 102.2001 3.6333],2.148,1.245,3.505,2.349,2.109,1.048,3.119,2.223,120.0,550.0
2015-01-29,KualaLumpur,Malaysia,101.7001,3.1333,[101.2001 2.6333 102.2001 3.6333],2.148,1.245,3.505,2.349,2.101,1.035,3.075,2.12,120.0,519.0
2015-01-30,KualaLumpur,Malaysia,101.7001,3.1333,[101.2001 2.6333 102.2001 3.6333],2.148,1.245,3.505,2.356,2.088,1.045,3.098,2.117,118.0,541.0
2015-01-31,KualaLumpur,Malaysia,101.7001,3.1333,[101.2001 2.6333 102.2001 3.6333],1.955,1.316,3.499,2.222,1.83,0.934,3.026,2.018,108.0,525.0
2015-02-01,KualaLumpur,Malaysia,101.7001,3.1333,[101.2001 2.6333 102.2001 3.6333],2.148,1.316,3.499,2.305,1.939,0.948,3.056,2.07,123.0,555.0
2015-02-02,KualaLumpur,Malaysia,101.7001,3.1333,[101.2001 2.6333 102.2001 3.6333],2.236,1.316,3.499,2.354,1.929,0.973,3.092,2.132,117.0,538.0
2015-02-03,KualaLumpur,Malaysia,101.7001,3.1333,[101.2001 2.6333 102.2001 3.6333],2.069,1.203,3.435,2.257,1.913,0.982,3.154,2.143,133.0,536.0
2015-02-04,KualaLumpur,Malaysia,101.7001,3.1333,[101.2001 2.6333 102.2001 3.6333],1.896,0.916,3.235,2.089,1.874,0.901,3.193,2.137,128.0,551.0
2015-02-05,KualaLumpur,Malaysia,101.7001,3.1333,[101.2001 2.6333 102.2001 3.6333],2.148,0.945,3.468,2.251,1.868,0.932,3.26,2.185,145.0,526.0
2015-02-06,KualaLumpur,Malaysia,101.7001,3.1333,[101.2001 2.6333 102.2001 3.6333],2.148,0.945,3.468,2.251,1.854,0.895,3.052,2.119,145.0,546.0
2015-02-07,KualaLumpur,Malaysia,101.7001,3.1333,[101.2001 2.6333 102.2001 3.6333],2.069,1.126,3.362,2.21,1.85,0.982,3.108,2.16,148.0,520.0
2015-02-08,KualaLumpur,Malaysia,101.7001,3.1333,[101.2001 2.6333 102.2001 3.6333],2.091,1.126,3.468,2.276,1.88,0.975,3.154,2.158,131.0,552.0
2015-02-09,KualaLumpur,Malaysia,101.7001,3.1333,[101.2001 2.6333 102.2001 3.6333],2.524,1.255,3.468,2.628,1.966,1.084,3.273,2.298,110.0,530.0
2015-02-10,KualaLumpur,Malaysia,101.7001,3.1333,[101.2001 2.6333 102.2001 3.6333],2.439,1.25,3.468,2.549,1.972,1.083,3.306,2.31,134.0,541.0
2015-02-11,KualaLumpur,Malaysia,101.7001,3.1333,[101.2001 2.6333 102.2001 3.6333],2.439,1.25,3.468,2.556,2.053,1.076,3.559,2.372,128.0,509.0
2015-02-12,KualaLumpur,Malaysia,101.7001,3.1333,[101.2001 2.6333 102.2001 3.6333],2.439,1.255,3.468,2.563,2.016,1.061,3.566,2.396,136.0,496.0
2015-02-13,KualaLumpur,Malaysia,101.7001,3.1333,[101.2001 2.6333 102.2001 3.6333],2.524,1.256,3.729,2.642,2.059,1.078,3.597,2.428,147.0,517.0
2015-02-14,KualaLumpur,Malaysia,101.7001,3.1333,[101.2001 2.6333 102.2001 3.6333],2.643,1.404,3.716,2.707,2.099,1.131,3.587,2.443,167.0,485.0
2015-02-15,KualaLumpur,Malaysia,101.7001,3.1333,[101.2001 2.6333 102.2001 3.6333],2.66,1.385,3.716,2.731,2.17,1.158,3.681,2.538,160.0,505.0
2015-02-16,KualaLumpur,Malaysia,101.7001,3.1333,[101.2001 2.6333 102.2001 3.6333],2.439,1.256,3.435,2.55,2.128,1.097,3.583,2.498,163.0,486.0
2015-02-17,KualaLumpur,Malaysia,101.7001,3.1333,[101.2001 2.6333 102.2001 3.6333],2.424,1.256,3.493,2.543,2.135,1.147,3.679,2.555,181.0,513.0
2015-02-18,KualaLumpur,Malaysia,101.7001,3.1333,[101.2001 2.6333 102.2001 3.6333],2.439,1.256,3.716,2.614,2.174,1.107,3.681,2.523,167.0,496.0
2015-02-19,KualaLumpur,Malaysia,101.7001,3.1333,[101.2001 2.6333 102.2001 3.6333],2.498,1.255,3.729,2.719,2.103,1.078,3.306,2.411,178.0,495.0
2015-02-20,KualaLumpur,Malaysia,101.7001,3.1333,[101.2001 2.6333 102.2001 3.6333],2.643,1.306,3.716,2.815,2.146,1.17,3.394,2.468,189.0,509.0
2015-02-21,KualaLumpur,Malaysia,101.7001,3.1333,[101.2001 2.6333 102.2001 3.6333],2.538,1.29,3.557,2.765,2.209,1.165,3.435,2.498,209.0,482.0
2015-02-22,KualaLumpur,Malaysia,101.7001,3.1333,[101.2001 2.6333 102.2001 3.6333],2.543,1.404,3.716,2.81,2.165,1.132,3.464,2.461,205.0,503.0
2015-02-23,KualaLumpur,Malaysia,101.7001,3.1333,[101.2001 2.6333 102.2001 3.6333],2.538,1.342,3.559,2.782,2.194,1.18,3.402,2.475,206.0,477.0
2015-02-24,KualaLumpur,Malaysia,101.7001,3.1333,[101.2001 2.6333 102.2001 3.6333],2.424,1.276,3.559,2.768,2.163,1.143,3.295,2.438,195.0,510.0
2015-02-25,KualaLumpur,Malaysia,101.7001,3.1333,[101.2001 2.6333 102.2001 3.6333],2.543,1.294,3.504,2.751,2.196,1.162,3.333,2.442,167.0,491.0
2015-02-26,KualaLumpur,Malaysia,101.7001,3.1333,[101.2001 2.6333 102.2001 3.6333],2.538,1.294,3.347,2.72,2.142,1.156,3.193,2.372,183.0,532.0
2015-02-27,KualaLumpur,Malaysia,101.7001,3.1333,[101.2001 2.6333 102.2001 3.6333],2.367,1.261,3.347,2.654,2.087,1.053,3.144,2.318,191.0,530.0
2015-02-28,KualaLumpur,Malaysia,101.7001,3.1333,[101.2001 2.6333 102.2001 3.6333],2.245,1.207,3.206,2.568,2.027,1.067,3.088,2.287,197.0,518.0
2015-03-01,KualaLumpur,Malaysia,101.7001,3.1333,[101.2001 2.6333 102.2001 3.6333],2.174,1.105,3.312,2.534,2.026,1.014,3.094,2.265,197.0,539.0
2015-03-02,KualaLumpur,Malaysia,101.7001,3.1333,[101.2001 2.6333 102.2001 3.6333],2.169,1.118,3.227,2.515,1.983,0.985,3.097,2.196,202.0,509.0
2015-03-03,KualaLumpur,Malaysia,101.7001,3.1333,[101.2001 2.6333 102.2001 3.6333],2.323,1.231,3.347,2.661,2.031,0.989,3.068,2.219,183.0,532.0
2015-03-04,KualaLumpur,Malaysia,101.7001,3.1333,[101.2001 2.6333 102.2001 3.6333],2.323,1.231,3.347,2.658,1.955,0.989,3.005,2.157,162.0,517.0
2015-03-05,KualaLumpur,Malaysia,101.7001,3.1333,[101.2001 2.6333 102.2001 3.6333],2.438,1.242,3.347,2.664,1.961,1.021,3.048,2.164,176.0,547.0
2015-03-06,KualaLumpur,Malaysia,101.7001,3.1333,[101.2001 2.6333 102.2001 3.6333],2.4,1.294,3.337,2.527,1.998,1.083,3.116,2.209,162.0,532.0
2015-03-07,KualaLumpur,Malaysia,101.7001,3.1333,[101.2001 2.6333 102.2001 3.6333],2.02,1.118,3.068,2.286,1.879,1.006,2.952,2.086,163.0,529.0
2015-03-08,KualaLumpur,Malaysia,101.7001,3.1333,[101.2001 2.6333 102.2001 3.6333],2.045,1.159,3.152,2.279,1.889,1.042,2.879,2.06,161.0,546.0
2015-03-09,KualaLumpur,Malaysia,101.7001,3.1333,[101.2001 2.6333 102.2001 3.6333],2.143,1.267,3.068,2.319,1.901,1.079,2.864,2.092,181.0,519.0
2015-03-10,KualaLumpur,Malaysia,101.7001,3.1333,[101.2001 2.6333 102.2001 3.6333],2.169,1.297,3.068,2.345,1.934,1.103,2.84,2.096,178.0,541.0
2015-03-11,KualaLumpur,Malaysia,101.7001,3.1333,[101.2001 2.6333 102.2001 3.6333],2.143,1.303,3.003,2.286,1.945,1.103,2.93,2.113,198.0,516.0
2015-03-12,KualaLumpur,Malaysia,101.7001,3.1333,[101.2001 2.6333 102.2001 3.6333],2.132,1.303,2.921,2.267,1.917,1.071,2.841,2.074,196.0,548.0
2015-03-13,KualaLumpur,Malaysia,101.7001,3.1333,[101.2001 2.6333 102.2001 3.6333],2.133,1.339,3.001,2.251,1.938,1.112,2.894,2.116,198.0,527.0
2015-03-14,KualaLumpur,Malaysia,101.7001,3.1333,[101.2001 2.6333 102.2001 3.6333],2.162,1.339,3.012,2.324,1.883,1.114,2.868,2.115,199.0,537.0
2015-03-15,KualaLumpur,Malaysia,101.7001,3.1333,[101.2001 2.6333 102.2001 3.6333],2.162,1.386,3.014,2.336,1.878,1.096,2.886,2.113,182.0,506.0
2015-03-16,KualaLumpur,Malaysia,101.7001,3.1333,[101.2001 2.6333 102.2001 3.6333],2.143,1.339,3.003,2.285,1.833,1.086,2.819,2.071,169.0,494.0
2015-03-17,KualaLumpur,Malaysia,101.7001,3.1333,[101.2001 2.6333 102.2001 3.6333],2.143,1.339,3.01,2.299,1.824,1.085,2.769,2.05,167.0,514.0
2015-03-18,KualaLumpur,Malaysia,101.7001,3.1333,[101.2001 2.6333 102.2001 3.6333],2.162,1.426,3.012,2.32,1.838,1.099,2.688,2.006,178.0,481.0
2015-03-19,KualaLumpur,Malaysia,101.7001,3.1333,[101.2001 2.6333 102.2001 3.6333],2.162,1.426,3.012,2.32,1.848,1.108,2.7,2.029,178.0,501.0
2015-03-20,KualaLumpur,Malaysia,101.7001,3.1333,[101.2001 2.6333 102.2001 3.6333],2.142,1.443,2.897,2.283,1.794,1.06,2.615,1.992,165.0,484.0
2015-03-21,KualaLumpur,Malaysia,101.7001,3.1333,[101.2001 2.6333 102.2001 3.6333],2.162,1.455,2.943,2.341,1.816,1.087,2.729,2.026,191.0,511.0
2015-03-22,KualaLumpur,Malaysia,101.7001,3.1333,[101.2001 2.6333 102.2001 3.6333],2.202,1.514,2.897,2.352,1.836,1.128,2.661,2.036,167.0,498.0
2015-03-23,KualaLumpur,Malaysia,101.7001,3.1333,[101.2001 2.6333 102.2001 3.6333],2.243,1.527,3.003,2.407,1.859,1.146,2.723,2.046,163.0,494.0
2015-03-24,KualaLumpur,Malaysia,101.7001,3.1333,[101.2001 2.6333 102.2001 3.6333],2.243,1.514,2.943,2.445,1.854,1.162,2.694,2.068,153.0,509.0
2015-03-25,KualaLumpur,Malaysia,101.7001,3.1333,[101.2001 2.6333 102.2001 3.6333],2.162,1.455,2.897,2.343,1.842,1.162,2.698,2.04,165.0,481.0
2015-03-26,KualaLumpur,Malaysia,101.7001,3.1333,[101.2001 2.6333 102.2001 3.6333],2.222,1.503,3.164,2.427,1.831,1.168,2.731,2.048,144.0,502.0
2015-03-27,KualaLumpur,Malaysia,101.7001,3.1333,[101.2001 2.6333 102.2001 3.6333],1.844,1.18,2.867,2.117,1.775,1.12,2.752,2.031,162.0,479.0
2015-03-28,KualaLumpur,Malaysia,101.7001,3.1333,[101.2001 2.6333 102.2001 3.6333],1.844,1.169,2.682,2.123,1.776,1.081,2.672,1.983,149.0,512.0
2015-03-29,KualaLumpur,Malaysia,101.7001,3.1333,[101.2001 2.6333 102.2001 3.6333],1.759,1.158,2.539,2.025,1.791,1.093,2.705,2.019,137.0,494.0
2015-03-30,KualaLumpur,Malaysia,101.7001,3.1333,[101.2001 2.6333 102.2001 3.6333],1.759,1.158,2.659,2.227,1.818,1.122,2.71,2.059,163.0,534.0
2015-03-31,KualaLumpur,Malaysia,101.7001,3.1333,[101.2001 2.6333 102.2001 3.6333],1.804,1.158,2.682,2.25,1.797,1.079,2.781,2.055,172.0,532.0
2015-04-01,KualaLumpur,Malaysia,101.7001,3.1333,[101.2001 2.6333 102.2001 3.6333],1.908,1.169,2.682,2.277,1.83,1.086,2.815,2.098,189.0,519.0
2015-04-02,KualaLumpur,Malaysia,101.7001,3.1333,[101.2001 2.6333 102.2001 3.6333],1.804,1.158,2.685,2.261,1.845,1.137,2.875,2.133,196.0,542.0
2015-04-03,KualaLumpur,Malaysia,101.7001,3.1333,[101.2001 2.6333 102.2001 3.6333],1.759,1.125,2.678,2.206,1.831,1.153,2.867,2.129,205.0,512.0
2015-04-04,KualaLumpur,Malaysia,101.7001,3.1333,[101.2001 2.6333 102.2001 3.6333],1.804,1.038,2.682,2.24,1.861,1.059,2.845,2.139,193.0,532.0
2015-04-05,KualaLumpur,Malaysia,101.7001,3.1333,[101.2001 2.6333 102.2001 3.6333],1.571,0.766,2.644,2.03,1.831,1.003,2.826,2.117,180.0,517.0
2015-04-06,KualaLumpur,Malaysia,101.7001,3.1333,[101.2001 2.6333 102.2001 3.6333],1.595,0.779,2.644,2.08,1.829,1.037,2.877,2.133,210.0,542.0
2015-04-07,KualaLumpur,Malaysia,101.7001,3.1333,[101.2001 2.6333 102.2001 3.6333],1.575,0.829,2.417,1.975,1.791,0.996,2.866,2.114,205.0,529.0
2015-04-08,KualaLumpur,Malaysia,101.7001,3.1333,[101.2001 2.6333 102.2001 3.6333],1.681,0.937,2.519,2.026,1.782,1.011,2.781,2.063,213.0,528.0
2015-04-09,KualaLumpur,Malaysia,101.7001,3.1333,[101.2001 2.6333 102.2001 3.6333],1.685,0.937,2.583,2.089,1.796,1.004,2.786,2.076,225.0,544.0
2015-04-10,KualaLumpur,Malaysia,101.7001,3.1333,[101.2001 2.6333 102.2001 3.6333],1.701,1.033,2.557,2.054,1.822,1.071,2.716,2.057,245.0,516.0
2015-04-11,KualaLumpur,Malaysia,101.7001,3.1333,[101.2001 2.6333 102.2001 3.6333],1.93,1.15,2.822,2.265,1.843,1.094,2.74,2.094,224.0,535.0
2015-04-12,KualaLumpur,Malaysia,101.7001,3.1333,[101.2001 2.6333 102.2001 3.6333],1.774,1.116,2.678,2.188,1.891,1.125,2.852,2.187,226.0,511.0
2015-04-13,KualaLumpur,Malaysia,101.7001,3.1333,[101.2001 2.6333 102.2001 3.6333],1.818,1.153,2.758,2.215,1.85,1.125,2.85,2.154,224.0,542.0
2015-04-14,KualaLumpur,Malaysia,101.7001,3.1333,[101.2001 2.6333 102.2001 3.6333],1.818,1.255,2.557,2.036,1.848,1.179,2.806,2.111,204.0,522.0
2015-04-15,KualaLumpur,Malaysia,101.7001,3.1333,[101.2001 2.6333 102.2001 3.6333],1.787,1.255,2.531,2.005,1.873,1.177,2.771,2.105,212.0,534.0
2015-04-16,KualaLumpur,Malaysia,101.7001,3.1333,[101.2001 2.6333 102.2001 3.6333],1.731,1.191,2.401,1.951,1.801,1.147,2.714,2.061,192.0,504.0
2015-04-17,KualaLumpur,Malaysia,101.7001,3.1333,[101.2001 2.6333 102.2001 3.6333],1.719,1.116,2.334,1.894,1.812,1.14,2.759,2.084,181.0,491.0
2015-04-18,KualaLumpur,Malaysia,101.7001,3.1333,[101.2001 2.6333 102.2001 3.6333],1.731,1.255,2.401,1.955,1.785,1.176,2.719,2.069,184.0,513.0
2015-04-19,KualaLumpur,Malaysia,101.7001,3.1333,[101.2001 2.6333 102.2001 3.6333],1.719,1.255,2.358,1.939,1.815,1.204,2.688,2.071,193.0,482.0
2015-04-20,KualaLumpur,Malaysia,101.7001,3.1333,[101.2001 2.6333 102.2001 3.6333],1.801,1.306,2.516,2.067,1.835,1.174,2.734,2.076,174.0,505.0
2015-04-21,KualaLumpur,Malaysia,101.7001,3.1333,[101.2001 2.6333 102.2001 3.6333],1.719,1.255,2.293,1.885,1.826,1.134,2.7,2.033,157.0,490.0
2015-04-22,KualaLumpur,Malaysia,101.7001,3.1333,[101.2001 2.6333 102.2001 3.6333],1.719,1.211,2.356,1.883,1.808,1.171,2.731,2.015,149.0,519.0
2015-04-23,KualaLumpur,Malaysia,101.7001,3.1333,[101.2001 2.6333 102.2001 3.6333],1.691,1.185,2.123,1.701,1.826,1.166,2.687,2.003,138.0,504.0
2015-04-24,KualaLumpur,Malaysia,101.7001,3.1333,[101.2001 2.6333 102.2001 3.6333],1.605,1.033,1.996,1.632,1.733,1.088,2.669,1.94,140.0,506.0
2015-04-25,KualaLumpur,Malaysia,101.7001,3.1333,[101.2001 2.6333 102.2001 3.6333],1.508,0.999,1.942,1.572,1.72,1.046,2.59,1.913,124.0,520.0
2015-04-26,KualaLumpur,Malaysia,101.7001,3.1333,[101.2001 2.6333 102.2001 3.6333],1.508,0.964,1.855,1.563,1.722,1.02,2.572,1.895,127.0,497.0
2015-04-27,KualaLumpur,Malaysia,101.7001,3.1333,[101.2001 2.6333 102.2001 3.6333],1.51,0.999,1.996,1.606,1.676,1.015,2.416,1.81,120.0,517.0
2015-04-28,KualaLumpur,Malaysia,101.7001,3.1333,[101.2001 2.6333 102.2001 3.6333],1.398,0.939,1.926,1.511,1.669,1.04,2.354,1.784,127.0,488.0
2015-04-29,KualaLumpur,Malaysia,101.7001,3.1333,[101.2001 2.6333 102.2001 3.6333],1.364,0.881,1.842,1.481,1.576,0.955,2.298,1.708,121.0,522.0
2015-04-30,KualaLumpur,Malaysia,101.7001,3.1333,[101.2001 2.6333 102.2001 3.6333],1.354,0.8,1.776,1.395,1.577,0.936,2.241,1.702,103.0,501.0
2015-05-01,KualaLumpur,Malaysia,101.7001,3.1333,[101.2001 2.6333 102.2001 3.6333],1.354,0.8,1.776,1.391,1.594,0.918,2.278,1.688,106.0,544.0
2015-05-02,KualaLumpur,Malaysia,101.7001,3.1333,[101.2001 2.6333 102.2001 3.6333],1.364,0.814,1.842,1.417,1.53,0.882,2.193,1.632,109.0,543.0
2015-05-03,KualaLumpur,Malaysia,101.7001,3.1333,[101.2001 2.6333 102.2001 3.6333],1.442,0.924,2.13,1.589,1.548,0.89,2.204,1.651,113.0,529.0
2015-05-04,KualaLumpur,Malaysia,101.7001,3.1333,[101.2001 2.6333 102.2001 3.6333],1.466,0.9,2.273,1.69,1.575,0.907,2.288,1.706,116.0,547.0
2015-05-05,KualaLumpur,Malaysia,101.7001,3.1333,[101.2001 2.6333 102.2001 3.6333],1.446,0.9,2.273,1.674,1.571,0.904,2.265,1.683,120.0,518.0
2015-05-06,KualaLumpur,Malaysia,101.7001,3.1333,[101.2001 2.6333 102.2001 3.6333],1.65,0.964,2.394,1.779,1.604,0.917,2.276,1.705,102.0,541.0
2015-05-07,KualaLumpur,Malaysia,101.7001,3.1333,[101.2001 2.6333 102.2001 3.6333],1.686,1.095,2.394,1.794,1.643,0.944,2.289,1.731,105.0,522.0
2015-05-08,KualaLumpur,Malaysia,101.7001,3.1333,[101.2001 2.6333 102.2001 3.6333],1.739,1.095,2.749,1.983,1.653,0.978,2.392,1.805,131.0,551.0
2015-05-09,KualaLumpur,Malaysia,101.7001,3.1333,[101.2001 2.6333 102.2001 3.6333],1.752,1.218,2.705,2.013,1.667,1.014,2.354,1.795,109.0,532.0
2015-05-10,KualaLumpur,Malaysia,101.7001,3.1333,[101.2001 2.6333 102.2001 3.6333],1.856,1.083,2.749,2.039,1.619,0.973,2.312,1.761,108.0,535.0
2015-05-11,KualaLumpur,Malaysia,101.7001,3.1333,[101.2001 2.6333 102.2001 3.6333],1.914,1.201,2.771,2.095,1.66,1.038,2.335,1.787,119.0,544.0
2015-05-12,KualaLumpur,Malaysia,101.7001,3.1333,[101.2001 2.6333 102.2001 3.6333],1.882,1.218,2.771,2.088,1.61,1.0,2.336,1.754,125.0,520.0
2015-05-13,KualaLumpur,Malaysia,101.7001,3.1333,[101.2001 2.6333 102.2001 3.6333],2.025,1.441,2.937,2.295,1.638,0.981,2.429,1.812,115.0,545.0
2015-05-14,KualaLumpur,Malaysia,101.7001,3.1333,[101.2001 2.6333 102.2001 3.6333],2.002,1.441,2.856,2.272,1.69,1.098,2.467,1.876,119.0,513.0
2015-05-15,KualaLumpur,Malaysia,101.7001,3.1333,[101.2001 2.6333 102.2001 3.6333],2.025,1.446,3.0,2.338,1.671,1.104,2.471,1.887,113.0,546.0
2015-05-16,KualaLumpur,Malaysia,101.7001,3.1333,[101.2001 2.6333 102.2001 3.6333],1.952,1.335,2.937,2.267,1.712,1.088,2.506,1.907,113.0,523.0
2015-05-17,KualaLumpur,Malaysia,101.7001,3.1333,[101.2001 2.6333 102.2001 3.6333],2.025,1.335,3.0,2.298,1.719,1.117,2.439,1.911,123.0,535.0
2015-05-18,KualaLumpur,Malaysia,101.7001,3.1333,[101.2001 2.6333 102.2001 3.6333],1.882,1.308,2.937,2.19,1.654,1.047,2.354,1.821,107.0,505.0
2015-05-19,KualaLumpur,Malaysia,101.7001,3.1333,[101.2001 2.6333 102.2001 3.6333],1.775,1.201,2.774,2.096,1.552,0.995,2.281,1.764,95.0,496.0
2015-05-20,KualaLumpur,Malaysia,101.7001,3.1333,[101.2001 2.6333 102.2001 3.6333],1.926,1.308,3.086,2.267,1.567,1.002,2.323,1.8,111.0,511.0
2015-05-21,KualaLumpur,Malaysia,101.7001,3.1333,[101.2001 2.6333 102.2001 3.6333],1.94,1.308,2.792,2.176,1.585,1.025,2.328,1.821,129.0,480.0
2015-05-22,KualaLumpur,Malaysia,101.7001,3.1333,[101.2001 2.6333 102.2001 3.6333],1.956,1.104,2.937,2.191,1.658,0.985,2.38,1.855,125.0,502.0
2015-05-23,KualaLumpur,Malaysia,101.7001,3.1333,[101.2001 2.6333 102.2001 3.6333],1.548,0.751,2.301,1.747,1.537,0.907,2.247,1.752,117.0,486.0
2015-05-24,KualaLumpur,Malaysia,101.7001,3.1333,[101.2001 2.6333 102.2001 3.6333],1.628,0.883,2.559,1.837,1.628,0.975,2.4,1.835,133.0,515.0
2015-05-25,KualaLumpur,Malaysia,101.7001,3.1333,[101.2001 2.6333 102.2001 3.6333],1.628,0.921,2.559,1.823,1.65,0.991,2.512,1.885,138.0,497.0
2015-05-26,KualaLumpur,Malaysia,101.7001,3.1333,[101.2001 2.6333 102.2001 3.6333],1.617,0.937,2.301,1.771,1.649,0.995,2.545,1.891,128.0,501.0
2015-05-27,KualaLumpur,Malaysia,101.7001,3.1333,[101.2001 2.6333 102.2001 3.6333],1.628,0.973,2.336,1.833,1.684,1.035,2.606,1.967,134.0,509.0
2015-05-28,KualaLumpur,Malaysia,101.7001,3.1333,[101.2001 2.6333 102.2001 3.6333],1.64,0.992,2.311,1.837,1.63,0.989,2.488,1.915,140.0,485.0
2015-05-29,KualaLumpur,Malaysia,101.7001,3.1333,[101.2001 2.6333 102.2001 3.6333],1.716,0.975,2.311,1.838,1.614,0.929,2.498,1.898,136.0,512.0
2015-05-30,KualaLumpur,Malaysia,101.7001,3.1333,[101.2001 2.6333 102.2001 3.6333],1.628,1.048,2.201,1.787,1.642,0.949,2.435,1.885,150.0,484.0
2015-05-31,KualaLumpur,Malaysia,101.7001,3.1333,[101.2001 2.6333 102.2001 3.6333],1.708,1.082,2.301,1.824,1.63,0.945,2.452,1.879,147.0,517.0
2015-06-01,KualaLumpur,Malaysia,101.7001,3.1333,[101.2001 2.6333 102.2001 3.6333],1.628,1.048,2.185,1.774,1.616,0.909,2.49,1.879,130.0,497.0
2015-06-02,KualaLumpur,Malaysia,101.7001,3.1333,[101.2001 2.6333 102.2001 3.6333],1.64,1.048,2.201,1.788,1.646,0.962,2.594,1.932,148.0,539.0
2015-06-03,KualaLumpur,Malaysia,101.7001,3.1333,[101.2001 2.6333 102.2001 3.6333],1.628,1.006,2.201,1.744,1.651,0.981,2.603,1.885,161.0,537.0
2015-06-04,KualaLumpur,Malaysia,101.7001,3.1333,[101.2001 2.6333 102.2001 3.6333],1.628,1.006,2.185,1.688,1.595,0.91,2.509,1.827,148.0,526.0
2015-06-05,KualaLumpur,Malaysia,101.7001,3.1333,[101.2001 2.6333 102.2001 3.6333],1.475,0.984,2.038,1.625,1.503,0.847,2.319,1.726,139.0,543.0
2015-06-06,KualaLumpur,Malaysia,101.7001,3.1333,[101.2001 2.6333 102.2001 3.6333],1.412,0.802,2.038,1.555,1.42,0.784,2.249,1.641,158.0,512.0
2015-06-07,KualaLumpur,Malaysia,101.7001,3.1333,[101.2001 2.6333 102.2001 3.6333],1.638,0.975,2.235,1.707,1.417,0.838,2.303,1.65,133.0,533.0
2015-06-08,KualaLumpur,Malaysia,101.7001,3.1333,[101.2001 2.6333 102.2001 3.6333],1.482,0.975,2.158,1.632,1.346,0.817,2.241,1.612,113.0,516.0
2015-06-09,KualaLumpur,Malaysia,101.7001,3.1333,[101.2001 2.6333 102.2001 3.6333],1.482,0.865,2.158,1.637,1.416,0.813,2.292,1.655,122.0,544.0
2015-06-10,KualaLumpur,Malaysia,101.7001,3.1333,[101.2001 2.6333 102.2001 3.6333],1.482,0.865,2.158,1.643,1.412,0.802,2.22,1.625,118.0,525.0
2015-06-11,KualaLumpur,Malaysia,101.7001,3.1333,[101.2001 2.6333 102.2001 3.6333],1.475,0.802,2.144,1.57,1.413,0.802,2.244,1.618,115.0,528.0
2015-06-12,KualaLumpur,Malaysia,101.7001,3.1333,[101.2001 2.6333 102.2001 3.6333],1.462,0.802,2.201,1.591,1.433,0.821,2.268,1.63,125.0,541.0
2015-06-13,KualaLumpur,Malaysia,101.7001,3.1333,[101.2001 2.6333 102.2001 3.6333],1.412,0.791,2.085,1.527,1.444,0.844,2.216,1.633,133.0,514.0
2015-06-14,KualaLumpur,Malaysia,101.7001,3.1333,[101.2001 2.6333 102.2001 3.6333],1.324,0.501,2.327,1.531,1.431,0.775,2.263,1.622,119.0,538.0
2015-06-15,KualaLumpur,Malaysia,101.7001,3.1333,[101.2001 2.6333 102.2001 3.6333],1.324,0.644,2.13,1.53,1.504,0.825,2.345,1.683,128.0,511.0